[[{"header":{"parameterUnit":"m.s-1","parameterCategory":1,"la1":30.2991,"la2":30.254,"lo1":-89.0895,"lo2":-89.0444,"dy":0.0017,"dx":0.0017,"nx":28,"ny":28,"refTime":"2023-08-23T03:00:00:Z","depth":0,"parameterNumber":2,"parameterNumberName":"U-component_of_WINDS"},"data":[0,0,0,0,0,0,0,0,0,0,0,0,0,0,0,0,0,0,0,0,0,0,0,0,0,0,0,0,0,0,0,0,0,0,0,0,0,0,0,0,0,0,0,0,0,0,0,0,0,0,0,0,0,0,0,0,0,0,2.2878,2.288,0,2.2989,2.299,2.2991,2.3023,2.3022,2.3021,2.3021,2.3131,2.3135,2.3138,0,0,0,0,0,0,0,0,0,0,0,0,0,2.2691,2.2694,2.2878,2.288,2.2881,2.2989,2.299,2.2992,2.3023,2.3022,2.3021,2.302,2.313,2.3134,2.3138,0,0,0,0,0,0,0,0,0,0,0,0,0,2.2784,2.2695,2.2878,2.291,2.2914,2.2988,2.299,2.2992,2.3023,2.3022,2.3021,2.302,2.3129,2.3134,2.3139,2.319,0,0,2.3155,2.3157,0,0,0,0,0,0,0,0,2.2779,2.2791,2.2904,2.2908,2.2912,2.2991,2.2965,2.3058,2.3023,2.2981,2.3021,2.302,2.3085,2.3094,2.3117,2.3195,2.3199,2.3156,2.3159,2.3161,2.3162,0,0,0,0,0,0,0,2.2772,2.2786,2.2922,2.2905,2.291,2.2917,2.2929,2.2982,2.3037,2.2985,2.2987,2.3,2.3087,2.3111,2.3119,2.3201,2.3155,2.316,2.3163,2.3165,2.3325,2.3326,0,0,0,0,0,0,2.2761,2.2781,2.2918,2.2925,2.2842,2.2921,2.2935,2.2967,2.3036,2.3046,2.3001,2.3001,2.3103,2.3113,2.3123,2.3186,2.3161,2.3166,2.3169,2.3323,2.3325,2.3326,0,0,0,0,0,0,2.2757,2.2773,2.2914,2.2854,2.2872,2.2925,2.2961,2.2969,2.2993,2.3049,2.3058,2.3016,2.3103,2.3116,2.3173,2.319,2.3168,2.3173,2.3322,2.3324,2.3325,2.3312,0,0,0,0,0,0,2.2751,2.2771,2.2792,2.2854,2.2875,2.2962,2.2962,2.2972,2.3003,2.3004,2.3065,2.3074,2.3103,2.3165,2.3178,2.3197,2.3177,2.3321,2.3323,2.3325,2.3311,2.3313,2.3314,0,0,0,0,0,2.2744,2.2783,2.2793,2.2809,2.2902,2.2963,2.2975,2.3008,2.3004,2.3024,2.306,2.3072,2.3186,2.317,2.3185,2.3206,2.332,2.3322,2.3325,2.331,2.3312,2.3314,0,0,0,0,0,0,2.2721,2.2792,2.2803,2.2864,2.2907,2.2968,2.2995,2.301,2.3055,2.3055,2.3093,2.3106,2.316,2.3189,2.317,2.3258,2.3253,2.3259,2.3237,2.324,2.3241,2.3232,2.3182,0,0,0,0,0,2.2723,2.2767,2.2827,2.2874,2.2896,2.2942,2.2969,2.2991,2.3038,2.3056,2.3095,2.3139,2.3185,2.3214,2.3259,2.3316,2.3328,2.3337,2.3339,2.334,2.3344,2.3375,2.3379,2.3334,2.3334,2.3334,0,0,2.2727,2.2771,2.2797,2.2871,2.2907,2.2951,2.2957,2.3004,2.3036,2.3063,2.3119,2.3149,2.32,2.3257,2.3283,2.3282,2.336,2.3343,2.3344,2.3347,2.3378,2.3382,2.3385,2.3336,2.3335,2.3335,0,0,2.2757,2.2796,2.2839,2.2875,2.293,2.2961,2.2971,2.303,2.3051,2.3108,2.3129,2.3168,2.3246,2.3281,2.3309,2.3352,2.3365,2.3366,2.3374,2.3403,2.3407,2.341,2.3424,2.3428,2.337,2.337,2.337,0,2.2754,2.2823,2.2859,2.2904,2.2935,2.2962,2.3005,2.3039,2.3105,2.3125,2.3124,2.3222,2.3258,2.3323,2.3333,2.3355,2.3367,2.3358,2.3404,2.3407,2.3411,2.3424,2.3429,2.3369,2.3369,2.3369,2.3369,0,2.2816,2.2863,2.2891,2.2956,2.299,2.3034,2.3075,2.3106,2.3124,2.3154,2.3211,2.3256,2.331,2.3327,2.3346,2.3394,2.3391,2.3396,2.3392,2.3414,2.3427,2.3433,2.3369,2.3369,2.3369,2.3369,0,0,2.2834,2.2918,2.2927,2.2956,2.3019,2.3055,2.31,2.3153,2.3178,2.3223,2.326,2.3326,2.333,2.3362,2.3385,2.3411,2.344,2.3413,2.3414,2.3415,2.3494,2.3489,2.3494,2.3449,2.345,2.3451,2.3489,0,2.287,2.2952,2.2986,2.3051,2.3094,2.312,2.3159,2.3201,2.323,2.3269,2.3301,2.3347,2.335,2.3369,2.3396,2.3431,2.3456,2.3429,2.3483,2.3484,2.3468,2.3502,2.3497,2.353,2.3495,2.3496,2.3496,0,2.2924,2.297,2.304,2.3096,2.3116,2.315,2.3201,2.3239,2.3287,2.3306,2.3342,2.3363,2.3409,2.3403,2.3467,2.3447,2.3472,2.3492,2.3494,2.3499,2.3491,2.3506,2.3542,2.3546,2.3505,2.3504,2.3504,0,2.2927,2.3007,2.3059,2.3083,2.3151,2.3174,2.3203,2.325,2.328,2.3324,2.3344,2.3393,2.3419,2.3456,2.349,2.3483,2.355,2.3547,2.3566,2.3565,2.3578,2.3577,2.3617,2.3596,2.3596,2.3596,2.3596,0,2.2964,2.3005,2.3061,2.3093,2.3139,2.3177,2.3222,2.3253,2.3294,2.3331,2.3357,2.3391,2.3434,2.3473,2.35,2.3548,2.356,2.3576,2.3582,2.3573,2.3571,2.3589,2.3587,2.3597,2.3597,2.3597,2.3597,0,2.2975,2.3015,2.3073,2.3132,2.3148,2.318,2.323,2.3261,2.3292,2.3338,2.3351,2.3399,2.3446,2.3484,2.3546,2.3564,2.3614,2.3621,2.3598,2.3601,2.3617,2.3615,2.3669,2.3678,2.3652,2.3652,2.3653,0,2.2995,2.3028,2.3091,2.3118,2.3147,2.3191,2.3221,2.3259,2.329,2.3346,2.337,2.342,2.3461,2.3536,2.3575,2.3622,2.363,2.3646,2.3638,2.3627,2.3629,2.3626,2.3629,2.3647,2.3647,2.3647,2.3647,0,2.3026,2.3044,2.3088,2.3138,2.3174,2.3215,2.3256,2.3277,2.3322,2.3355,2.3404,2.3436,2.35,2.3548,2.3599,2.3628,2.3645,2.365,2.3656,2.3646,2.3631,2.3638,2.3599,2.3648,2.3648,2.3648,2.3648,2.3648,2.3042,2.3071,2.312,2.3167,2.3203,2.3241,2.3273,2.3307,2.3349,2.3404,2.3424,2.3474,2.352,2.3591,2.362,2.3659,2.366,2.3671,2.3673,2.3674,2.3673,2.3626,2.3669,2.3669,2.3669,2.3669,2.3669,0,2.3073,2.3105,2.3149,2.3206,2.3243,2.3256,2.3303,2.3332,2.3377,2.3419,2.3459,2.3515,2.3562,2.3605,2.3654,2.3677,2.3685,2.3688,2.3686,2.3692,2.367,2.3658,2.368,2.368,2.368,2.368,2.368,2.368,2.3093,2.3143,2.3167,2.3234,2.3267,2.3317,2.3342,2.3377,2.341,2.3472,2.3511,2.3539,2.3581,2.3633,2.3677,2.3688,2.3704,2.3705,2.3718,2.3696,2.3694,2.3692,2.3682,2.3708,2.3708,2.3737,2.3737,2.3737]},{"header":{"parameterUnit":"m.s-1","parameterCategory":1,"la1":30.2991,"la2":30.254,"lo1":-89.0895,"lo2":-89.0444,"dy":0.0017,"dx":0.0017,"nx":28,"ny":28,"refTime":"2023-08-23T03:00:00:Z","depth":0,"parameterNumber":3,"parameterNumberName":"V-component_of_WINDS"},"data":[0,0,0,0,0,0,0,0,0,0,0,0,0,0,0,0,0,0,0,0,0,0,0,0,0,0,0,0,0,0,0,0,0,0,0,0,0,0,0,0,0,0,0,0,0,0,0,0,0,0,0,0,0,0,0,0,0,0,2.0788,2.0788,0,2.0741,2.074,2.074,2.067,2.0669,2.0668,2.0667,2.0618,2.0618,2.0618,0,0,0,0,0,0,0,0,0,0,0,0,0,2.0819,2.0819,2.0788,2.0788,2.0787,2.0741,2.074,2.0739,2.067,2.0669,2.0667,2.0666,2.0618,2.0618,2.0618,0,0,0,0,0,0,0,0,0,0,0,0,0,2.0792,2.0819,2.0789,2.0747,2.0743,2.0741,2.074,2.0739,2.0671,2.0669,2.0667,2.0665,2.0618,2.0618,2.0617,2.0652,0,0,2.0617,2.0617,0,0,0,0,0,0,0,0,2.0794,2.0791,2.0754,2.075,2.0745,2.0709,2.0733,2.071,2.0671,2.0698,2.0666,2.0664,2.065,2.0647,2.0642,2.065,2.0648,2.0617,2.0617,2.0616,2.0616,0,0,0,0,0,0,0,2.0796,2.0793,2.0769,2.0753,2.0748,2.0731,2.0725,2.0728,2.0685,2.0696,2.069,2.0686,2.0647,2.0642,2.064,2.0647,2.0617,2.0616,2.0616,2.0616,2.068,2.0681,0,0,0,0,0,0,2.0804,2.0795,2.0771,2.0768,2.0766,2.0732,2.0725,2.0723,2.0684,2.0677,2.0687,2.0683,2.0644,2.0641,2.0638,2.0675,2.0616,2.0616,2.0616,2.0678,2.068,2.0682,0,0,0,0,0,0,2.0805,2.0803,2.0773,2.078,2.0775,2.0733,2.0731,2.0723,2.0718,2.0678,2.067,2.069,2.0642,2.0639,2.0649,2.0673,2.0616,2.0616,2.0676,2.0678,2.0681,2.075,0,0,0,0,0,0,2.0806,2.0803,2.0816,2.0781,2.0775,2.0785,2.0732,2.0723,2.0718,2.0711,2.0679,2.0672,2.064,2.065,2.0649,2.0671,2.0616,2.0673,2.0677,2.068,2.0746,2.0755,2.0763,0,0,0,0,0,2.0807,2.0838,2.0817,2.0815,2.079,2.0786,2.0783,2.0746,2.072,2.0732,2.0707,2.0673,2.067,2.0651,2.065,2.0672,2.0672,2.0676,2.068,2.0742,2.0753,2.0763,0,0,0,0,0,0,2.0877,2.0833,2.0809,2.0829,2.0812,2.0775,2.0789,2.0759,2.0749,2.0744,2.0698,2.0692,2.0708,2.0691,2.0671,2.0703,2.0666,2.067,2.0713,2.0724,2.0733,2.0736,2.0615,0,0,0,0,0,2.0895,2.0896,2.0856,2.0878,2.087,2.0832,2.0829,2.0801,2.0782,2.0774,2.075,2.0732,2.0727,2.0725,2.0718,2.0743,2.0734,2.0758,2.0767,2.0774,2.0778,2.0789,2.0798,2.0696,2.0696,2.0695,0,0,2.0932,2.0907,2.091,2.0891,2.0875,2.0876,2.0826,2.083,2.083,2.0775,2.0783,2.0764,2.0741,2.0759,2.0765,2.0746,2.0804,2.0779,2.0785,2.0785,2.0794,2.0804,2.0812,2.0698,2.0698,2.0697,0,0,2.0999,2.0981,2.0996,2.0981,2.0956,2.093,2.0934,2.0901,2.0886,2.0893,2.0851,2.0851,2.0844,2.0829,2.0821,2.0882,2.085,2.0881,2.0926,2.0937,2.0945,2.0952,2.0973,2.0981,2.0885,2.0885,2.0885,0,2.1047,2.1048,2.1008,2.1014,2.1006,2.0956,2.0971,2.0958,2.0933,2.0929,2.0907,2.0896,2.0877,2.089,2.0905,2.09,2.0902,2.0884,2.0947,2.0954,2.096,2.0979,2.0987,2.0889,2.0888,2.0888,2.0888,0,2.1108,2.1109,2.1125,2.1101,2.1095,2.1106,2.1067,2.1066,2.104,2.1016,2.1023,2.0999,2.0986,2.0987,2.0961,2.0996,2.0984,2.0956,2.0917,2.0974,2.0991,2.0998,2.0894,2.0893,2.0892,2.0891,0,0,2.1218,2.1172,2.1178,2.1166,2.1136,2.1136,2.1144,2.1131,2.113,2.1115,2.112,2.1114,2.1087,2.1078,2.105,2.106,2.1108,2.103,2.1028,2.1044,2.1144,2.1165,2.1174,2.1087,2.1089,2.109,2.1145,0,2.1278,2.129,2.1254,2.1274,2.1274,2.1226,2.1233,2.1215,2.1192,2.1189,2.1164,2.116,2.1126,2.1119,2.1127,2.1101,2.1128,2.1097,2.1091,2.1091,2.1098,2.1183,2.1206,2.126,2.1152,2.1153,2.1154,0,2.135,2.1338,2.1358,2.1326,2.1324,2.1331,2.1316,2.1314,2.1292,2.1274,2.1264,2.1231,2.1236,2.1199,2.1205,2.1185,2.118,2.1167,2.1168,2.1166,2.1126,2.1183,2.1276,2.1284,2.1164,2.1164,2.1163,0,2.1427,2.1416,2.1426,2.1418,2.138,2.1386,2.1371,2.1347,2.1341,2.1328,2.1324,2.1311,2.1304,2.1295,2.126,2.1237,2.1269,2.123,2.1255,2.1256,2.1263,2.1263,2.1357,2.1262,2.1262,2.1262,2.1262,0,2.1498,2.1512,2.146,2.1467,2.1481,2.1439,2.1454,2.1434,2.1413,2.1414,2.1372,2.1374,2.1328,2.1324,2.1297,2.1305,2.1302,2.1288,2.1281,2.1292,2.1293,2.1288,2.1283,2.1264,2.1263,2.1263,2.1263,0,2.1586,2.1552,2.156,2.1524,2.1515,2.1527,2.1495,2.15,2.1475,2.1476,2.1475,2.1435,2.1429,2.1393,2.1378,2.1359,2.1377,2.1363,2.1385,2.138,2.1406,2.1404,2.1499,2.1509,2.1409,2.141,2.141,0,2.1633,2.1643,2.1608,2.1605,2.1592,2.1589,2.1583,2.1542,2.1537,2.1513,2.152,2.151,2.15,2.1492,2.1462,2.145,2.1434,2.1468,2.1432,2.1443,2.1434,2.1433,2.1433,2.1476,2.1477,2.1478,2.1479,0,2.172,2.1703,2.1696,2.1683,2.1676,2.1664,2.1649,2.165,2.1604,2.1601,2.1594,2.1586,2.1571,2.1562,2.1545,2.1528,2.1496,2.1491,2.1496,2.1507,2.1519,2.1512,2.1405,2.1489,2.1488,2.1487,2.1487,2.1486,2.1789,2.1795,2.1771,2.1764,2.1748,2.1735,2.1737,2.1712,2.1706,2.169,2.1666,2.1663,2.1639,2.1613,2.1599,2.1595,2.1577,2.1584,2.1586,2.1588,2.1593,2.152,2.1592,2.1592,2.1591,2.1591,2.1591,0,2.1873,2.1855,2.1849,2.1829,2.1824,2.1794,2.1776,2.1773,2.1771,2.1752,2.1743,2.1734,2.1725,2.1694,2.1681,2.1683,2.1668,2.1681,2.168,2.1677,2.1611,2.1608,2.1694,2.1694,2.1693,2.1693,2.1693,2.1693,2.1916,2.1924,2.1904,2.1904,2.1885,2.1882,2.1874,2.1861,2.1846,2.1838,2.183,2.181,2.1786,2.1771,2.176,2.1751,2.1748,2.1766,2.1752,2.1691,2.1681,2.1672,2.1669,2.1766,2.1766,2.1818,2.1818,2.1819]}]]